timestamp,wind_dir_avg,wind_spd_avg,wind_spd_max_dir,wind_spd_gust,battery_voltage,lat,long
2020-11-23 00:04:01+00:00,342.0,4.04,339.0,4.93,12.57,47.59359,-54.27349
2020-11-23 00:14:01+00:00,339.0,4.33,346.0,5.51,12.57,47.59359,-54.27349
2020-11-23 00:24:01+00:00,342.0,5.59,342.0,7.04,12.57,47.59359,-54.27349
2020-11-23 00:34:01+00:00,347.0,4.14,347.0,4.98,12.57,47.59359,-54.27349
2020-11-23 00:44:01+00:00,339.0,3.7,341.0,4.39,12.57,47.59359,-54.27349
2020-11-23 00:54:01+00:00,357.0,4.68,0.0,5.36,12.57,47.59359,-54.27349
2020-11-23 01:04:01+00:00,348.0,4.38,355.0,4.9,12.57,47.59359,-54.27349
2020-11-23 01:14:01+00:00,348.0,4.81,347.0,5.25,12.57,47.59359,-54.27349
2020-11-23 01:24:01+00:00,0.0,5.59,358.0,6.7,12.57,47.59359,-54.27349
2020-11-23 01:34:01+00:00,342.0,4.51,342.0,5.89,12.57,47.59359,-54.27349
2020-11-23 01:44:01+00:00,344.0,4.22,340.0,4.99,12.57,47.59359,-54.27349
2020-11-23 01:54:01+00:00,339.0,4.33,340.0,5.09,12.57,47.59359,-54.27349
2020-11-23 02:04:01+00:00,351.0,4.45,0.0,5.14,12.57,47.59359,-54.27349
2020-11-23 02:14:01+00:00,330.0,4.0,335.0,4.51,12.57,47.59359,-54.27349
2020-11-23 02:24:01+00:00,347.0,4.11,341.0,5.26,12.57,47.59359,-54.27349
2020-11-23 02:34:01+00:00,323.0,5.1,320.0,6.21,12.57,47.59359,-54.27349
2020-11-23 02:44:01+00:00,336.0,4.65,343.0,5.49,12.57,47.59359,-54.27349
2020-11-23 02:54:01+00:00,335.0,4.02,329.0,5.23,12.57,47.59359,-54.27349
2020-11-23 03:04:01+00:00,345.0,4.55,352.0,5.41,12.57,47.59359,-54.27349
2020-11-23 03:14:01+00:00,355.0,4.33,358.0,4.9,12.49,47.59359,-54.27349
2020-11-23 03:24:01+00:00,335.0,3.67,329.0,4.9,12.49,47.59359,-54.27349
2020-11-23 03:34:01+00:00,325.0,4.34,333.0,5.62,12.49,47.59359,-54.27349
2020-11-23 03:44:01+00:00,327.0,4.93,329.0,5.96,12.49,47.59359,-54.27349
2020-11-23 03:54:01+00:00,323.0,5.37,327.0,6.75,12.49,47.59359,-54.27349
2020-11-23 04:04:01+00:00,335.0,5.06,327.0,6.24,12.49,47.59359,-54.27349
2020-11-23 04:14:01+00:00,337.0,5.11,324.0,6.14,12.49,47.59359,-54.27349
2020-11-23 04:24:01+00:00,339.0,4.99,342.0,5.97,12.49,47.59359,-54.27349
2020-11-23 04:34:01+00:00,348.0,4.55,335.0,5.35,12.49,47.59359,-54.27349
2020-11-23 04:44:01+00:00,350.0,4.08,354.0,4.59,12.49,47.59359,-54.27349
2020-11-23 04:54:01+00:00,341.0,4.06,339.0,5.38,12.49,47.59359,-54.27349
2020-11-23 05:04:01+00:00,350.0,4.74,344.0,5.88,12.49,47.59359,-54.27349
2020-11-23 05:14:01+00:00,346.0,4.22,351.0,5.27,12.49,47.59359,-54.27349
2020-11-23 05:24:01+00:00,332.0,4.88,330.0,5.81,12.49,47.59359,-54.27349
2020-11-23 05:34:01+00:00,328.0,4.24,322.0,5.79,12.49,47.59359,-54.27349
2020-11-23 05:44:01+00:00,329.0,4.61,335.0,5.23,12.49,47.59359,-54.27349
2020-11-23 05:54:01+00:00,339.0,3.73,308.0,4.76,12.49,47.59359,-54.27349
2020-11-23 06:04:01+00:00,312.0,4.86,308.0,5.76,12.49,47.59359,-54.27349
2020-11-23 06:14:01+00:00,328.0,4.54,327.0,6.91,12.49,47.59359,-54.27349
2020-11-23 06:24:01+00:00,331.0,4.36,322.0,5.11,12.49,47.59359,-54.27349
2020-11-23 06:34:01+00:00,324.0,4.62,329.0,6.01,12.49,47.59359,-54.27349
2020-11-23 06:44:01+00:00,326.0,5.6,321.0,6.53,12.49,47.59359,-54.27349
2020-11-23 06:54:01+00:00,334.0,5.09,324.0,6.39,12.49,47.59359,-54.27349
2020-11-23 07:04:01+00:00,335.0,4.28,328.0,5.8,12.49,47.59359,-54.27349
2020-11-23 07:14:01+00:00,353.0,5.35,354.0,5.97,12.41,47.59359,-54.27349
2020-11-23 07:24:01+00:00,337.0,5.37,322.0,6.81,12.41,47.59359,-54.27349
2020-11-23 07:34:01+00:00,335.0,6.09,326.0,7.66,12.41,47.59359,-54.27349
2020-11-23 07:44:01+00:00,326.0,5.73,332.0,6.87,12.41,47.59359,-54.27349
2020-11-23 07:54:01+00:00,330.0,6.23,325.0,7.83,12.41,47.59359,-54.27349
2020-11-23 08:04:01+00:00,326.0,6.19,324.0,7.38,12.41,47.59359,-54.27349
2020-11-23 08:14:01+00:00,328.0,6.22,324.0,7.62,12.41,47.59359,-54.27349
2020-11-23 08:24:01+00:00,325.0,5.73,333.0,6.99,12.41,47.59359,-54.27349
2020-11-23 08:34:01+00:00,334.0,4.97,325.0,5.94,12.41,47.59359,-54.27349
2020-11-23 08:44:01+00:00,327.0,5.52,316.0,6.93,12.41,47.59359,-54.27349
2020-11-23 08:54:01+00:00,320.0,4.56,308.0,5.86,12.41,47.59359,-54.27349
2020-11-23 09:04:01+00:00,330.0,4.37,313.0,5.63,12.41,47.59359,-54.27349
2020-11-23 09:14:01+00:00,346.0,4.38,340.0,5.52,12.41,47.59359,-54.27349
2020-11-23 09:24:01+00:00,344.0,4.64,347.0,5.93,12.41,47.59359,-54.27349
2020-11-23 09:34:01+00:00,347.0,3.21,331.0,4.68,12.41,47.59359,-54.27349
2020-11-23 09:44:01+00:00,354.0,3.22,7.0,3.92,12.41,47.59359,-54.27349
2020-11-23 09:54:01+00:00,348.0,3.21,333.0,3.93,12.41,47.59359,-54.27349
2020-11-23 10:04:01+00:00,358.0,3.89,358.0,5.3,12.41,47.59359,-54.27349
2020-11-23 10:14:01+00:00,1.0,3.94,6.0,5.37,12.41,47.59359,-54.27349
2020-11-23 10:24:01+00:00,11.0,3.27,9.0,3.96,12.41,47.59359,-54.27349
2020-11-23 10:34:01+00:00,352.0,3.31,350.0,4.84,12.41,47.59359,-54.27349
2020-11-23 10:44:01+00:00,356.0,3.16,356.0,4.16,12.41,47.59359,-54.27349
2020-11-23 10:54:01+00:00,5.0,2.36,4.0,3.03,12.41,47.59359,-54.27349
2020-11-23 11:04:01+00:00,355.0,4.14,3.0,5.28,12.41,47.59359,-54.27349
2020-11-23 11:14:01+00:00,29.0,3.44,22.0,4.49,12.49,47.59359,-54.27349
2020-11-23 11:24:01+00:00,16.0,3.31,13.0,3.98,12.49,47.59359,-54.27349
2020-11-23 11:34:01+00:00,24.0,3.15,20.0,4.11,12.49,47.59359,-54.27349
2020-11-23 11:44:01+00:00,11.0,2.43,19.0,3.14,12.49,47.59359,-54.27349
2020-11-23 11:54:01+00:00,14.0,2.59,5.0,3.29,12.49,47.59359,-54.27349
2020-11-23 12:04:01+00:00,26.0,2.11,12.0,3.04,12.49,47.59359,-54.27349
2020-11-23 12:14:01+00:00,14.0,2.11,13.0,3.39,14.32,47.59359,-54.27349
2020-11-23 12:24:01+00:00,25.0,2.62,17.0,3.2,14.32,47.59359,-54.27349
2020-11-23 12:34:01+00:00,13.0,1.77,11.0,2.48,14.32,47.59359,-54.27349
2020-11-23 12:44:01+00:00,14.0,1.19,17.0,1.71,14.32,47.59359,-54.27349
2020-11-23 12:54:01+00:00,330.0,1.06,343.0,1.72,14.32,47.59359,-54.27349
2020-11-23 13:04:01+00:00,332.0,2.22,340.0,2.79,14.32,47.59359,-54.27349
2020-11-23 13:14:01+00:00,293.0,1.61,282.0,2.37,14.4,47.59359,-54.27349
2020-11-23 13:24:01+00:00,324.0,1.37,334.0,1.86,14.4,47.59359,-54.27349
2020-11-23 13:34:01+00:00,281.0,1.46,289.0,1.94,14.4,47.59359,-54.27349
2020-11-23 13:44:01+00:00,6.0,0.93,39.0,1.63,14.4,47.59359,-54.27349
2020-11-23 13:54:01+00:00,346.0,1.24,339.0,1.64,14.4,47.59359,-54.27349
2020-11-23 14:04:01+00:00,344.0,0.56,337.0,0.92,14.4,47.59359,-54.27349
2020-11-23 14:14:01+00:00,42.0,0.84,38.0,1.3,13.68,47.59359,-54.27349
2020-11-23 14:24:01+00:00,178.0,2.3,171.0,2.73,13.68,47.59359,-54.27349
2020-11-23 14:34:01+00:00,186.0,2.84,185.0,3.22,13.68,47.59359,-54.27349
2020-11-23 14:44:01+00:00,220.0,3.02,215.0,4.38,13.68,47.59359,-54.27349
2020-11-23 14:54:01+00:00,223.0,2.41,212.0,3.26,13.68,47.59359,-54.27349
2020-11-23 15:04:01+00:00,202.0,1.88,214.0,2.34,13.68,47.59359,-54.27349
2020-11-23 15:14:01+00:00,201.0,1.53,188.0,2.39,13.68,47.59359,-54.27349
2020-11-23 15:24:01+00:00,207.0,2.67,223.0,3.69,13.68,47.59359,-54.27349
2020-11-23 15:34:01+00:00,193.0,2.92,185.0,3.51,13.68,47.59359,-54.27349
2020-11-23 15:44:01+00:00,195.0,3.13,200.0,4.39,13.68,47.59359,-54.27349
2020-11-23 15:54:01+00:00,197.0,3.6,192.0,4.41,13.68,47.59359,-54.27349
2020-11-23 16:04:01+00:00,193.0,4.45,197.0,5.7,13.68,47.59359,-54.27349
2020-11-23 16:14:01+00:00,191.0,3.69,188.0,5.24,13.76,47.59359,-54.27349
2020-11-23 16:24:01+00:00,177.0,3.92,176.0,4.59,13.76,47.59359,-54.27349
2020-11-23 16:34:01+00:00,183.0,5.78,174.0,7.39,13.76,47.59359,-54.27349
2020-11-23 16:44:01+00:00,194.0,5.44,195.0,6.06,13.76,47.59359,-54.27349
2020-11-23 16:54:01+00:00,194.0,5.37,197.0,6.13,13.76,47.59359,-54.27349
2020-11-23 17:04:01+00:00,201.0,6.81,198.0,7.9,13.76,47.59359,-54.27349
2020-11-23 17:14:01+00:00,206.0,6.05,208.0,7.01,13.92,47.59359,-54.27349
2020-11-23 17:24:01+00:00,205.0,6.21,203.0,6.88,13.92,47.59359,-54.27349
2020-11-23 17:34:01+00:00,210.0,5.77,212.0,6.81,13.92,47.59359,-54.27349
2020-11-23 17:44:01+00:00,180.0,6.66,169.0,8.02,13.92,47.59359,-54.27349
2020-11-23 17:54:01+00:00,199.0,5.76,191.0,6.38,13.92,47.59359,-54.27349
2020-11-23 18:04:01+00:00,181.0,7.08,187.0,7.96,13.92,47.59359,-54.27349
2020-11-23 18:14:01+00:00,198.0,7.14,196.0,8.33,13.6,47.59359,-54.27349
2020-11-23 18:24:01+00:00,197.0,7.05,194.0,8.45,13.6,47.59359,-54.27349
2020-11-23 18:34:01+00:00,175.0,8.24,170.0,9.5,13.6,47.59359,-54.27349
2020-11-23 18:44:01+00:00,179.0,7.53,174.0,9.3,13.6,47.59359,-54.27349
2020-11-23 18:54:01+00:00,177.0,6.31,169.0,7.06,13.6,47.59359,-54.27349
2020-11-23 19:04:01+00:00,177.0,7.91,177.0,9.07,13.6,47.59359,-54.27349
2020-11-23 19:14:01+00:00,173.0,6.49,168.0,7.86,13.21,47.59359,-54.27349
2020-11-23 19:24:01+00:00,180.0,7.66,184.0,8.71,13.21,47.59359,-54.27349
2020-11-23 19:34:01+00:00,192.0,7.29,200.0,8.51,13.21,47.59359,-54.27349
2020-11-23 19:44:01+00:00,177.0,7.29,172.0,8.87,13.21,47.59359,-54.27349
2020-11-23 19:54:01+00:00,196.0,7.61,194.0,8.68,13.21,47.59359,-54.27349
2020-11-23 20:04:01+00:00,180.0,6.14,183.0,7.47,13.21,47.59359,-54.27349
2020-11-23 20:14:01+00:00,188.0,7.08,199.0,9.28,12.81,47.59359,-54.27349
2020-11-23 20:24:01+00:00,173.0,7.48,177.0,8.56,12.81,47.59359,-54.27349
2020-11-23 20:34:01+00:00,189.0,8.13,183.0,9.66,12.81,47.59359,-54.27349
2020-11-23 20:44:01+00:00,182.0,8.62,180.0,10.84,12.81,47.59359,-54.27349
2020-11-23 20:54:01+00:00,182.0,6.88,191.0,8.13,12.81,47.59359,-54.27349
2020-11-23 21:04:01+00:00,179.0,8.49,182.0,10.37,12.81,47.59359,-54.27349
2020-11-23 21:14:01+00:00,190.0,9.12,190.0,10.15,12.65,47.59359,-54.27349
2020-11-23 21:24:01+00:00,199.0,10.1,200.0,11.27,12.65,47.59359,-54.27349
2020-11-23 21:34:01+00:00,179.0,7.82,181.0,8.95,12.65,47.59359,-54.27349
2020-11-23 21:44:01+00:00,179.0,7.7,182.0,8.66,12.65,47.59359,-54.27349
2020-11-23 21:54:01+00:00,173.0,7.12,173.0,8.01,12.65,47.59359,-54.27349
2020-11-23 22:04:01+00:00,168.0,7.98,166.0,9.07,12.65,47.59359,-54.27349
2020-11-23 22:14:01+00:00,174.0,8.94,175.0,10.39,12.65,47.59359,-54.27349
2020-11-23 22:24:01+00:00,176.0,8.56,180.0,10.1,12.65,47.59359,-54.27349
2020-11-23 22:34:01+00:00,169.0,7.86,166.0,9.11,12.65,47.59359,-54.27349
2020-11-23 22:44:01+00:00,169.0,9.28,172.0,10.31,12.65,47.59359,-54.27349
2020-11-23 22:54:01+00:00,167.0,8.03,160.0,9.28,12.65,47.59359,-54.27349
2020-11-23 23:04:01+00:00,172.0,6.94,167.0,7.86,12.65,47.59359,-54.27349
2020-11-23 23:14:01+00:00,170.0,7.43,169.0,8.33,12.57,47.59359,-54.27349
2020-11-23 23:24:01+00:00,167.0,7.82,168.0,8.63,12.57,47.59359,-54.27349
2020-11-23 23:34:01+00:00,165.0,6.48,161.0,7.26,12.57,47.59359,-54.27349
2020-11-23 23:44:01+00:00,171.0,7.21,169.0,8.19,12.57,47.59359,-54.27349
2020-11-23 23:54:01+00:00,170.0,7.95,178.0,9.22,12.57,47.59359,-54.27349
